This is the latest recevied weather packets stored in our database for station/object KC8SWY-15. If no packets are shown the sender has not sent any weather packets the latest 10 day(s).
| Time | Temp. | Humidity | Pressure | Rain* | Wind** | Luminosity | Snow |
|---|---|---|---|---|---|---|---|
| 1778015368 | 10.56° C | 46% | 1009.1 hPa | 0 mm | - | - | - |
| 1778015068 | 10.56° C | 46% | 1009 hPa | 0 mm | - | - | - |
| 1778014768 | 10.56° C | 45% | 1008.9 hPa | 0 mm | - | - | - |
| 1778014468 | 10.56° C | 46% | 1009 hPa | 0 mm | - | - | - |
| 1778014168 | 10.56° C | 45% | 1009 hPa | 0 mm | - | - | - |
| 1778013868 | 11.11° C | 46% | 1009 hPa | 0 mm | - | - | - |
| 1778013568 | 11.11° C | 46% | 1009 hPa | 0 mm | - | - | - |
| 1778013268 | 10.56° C | 44% | 1009.2 hPa | 0 mm | - | - | - |
| 1778012968 | 10.56° C | 46% | 1009.2 hPa | 0 mm | - | - | - |
| 1778012668 | 10.56° C | 43% | 1009.2 hPa | 0 mm | - | - | - |
| 1778012368 | 10.56° C | 43% | 1009.1 hPa | 0 mm | - | - | - |
| 1778012068 | 10.56° C | 46% | 1009.2 hPa | 0 mm | - | - | - |
| 1778011768 | 10.56° C | 44% | 1009.2 hPa | 0 mm | - | - | - |
| 1778011468 | 10.56° C | 43% | 1009.3 hPa | 0 mm | - | - | - |
| 1778011168 | 10.56° C | 43% | 1009.2 hPa | 0 mm | - | - | - |
| 1778010868 | 10.56° C | 43% | 1009.2 hPa | 0 mm | - | - | - |
| 1778010568 | 10.56° C | 42% | 1009.3 hPa | 0 mm | - | - | - |
| 1778010268 | 10.56° C | 43% | 1009.3 hPa | 0 mm | - | - | - |
| 1778009968 | 10.56° C | 44% | 1009.2 hPa | 0 mm | - | - | - |
| 1778009668 | 10.56° C | 43% | 1009.2 hPa | 0 mm | - | - | - |
| 1778009368 | 10.56° C | 43% | 1009.3 hPa | 0 mm | - | - | - |
| 1778009068 | 10.56° C | 42% | 1009.2 hPa | 0 mm | - | - | - |
| 1778008768 | 10.56° C | 41% | 1009.2 hPa | 0 mm | - | - | - |
| 1778008468 | 10.56° C | 42% | 1009.2 hPa | 0 mm | - | - | - |
| 1778008168 | 10.56° C | 42% | 1009.3 hPa | 0 mm | - | - | - |
* Rain latest hour (hover to see other rain measurements)
** Current wind speed in m/s (hover to see current wind gust speed)